Regional Weather Roundup
Issued by NWS

Home | Current Version | Previous Version | Graphics & Text | Print | Product List | Glossary On
Versions: 1 2 3 4 5 6 7 8 9 10 11 12 13 14 15 16 17 18 19 20 21 22 23 24 25 26 27 28 29 30 31 32 33 34 35 36 37 38 39 40 41 42 43 44 45 46 47 48 49 50
000
ASUS43 KDTX 202210
RWRMI
MICHIGAN HOURLY REGIONAL WEATHER ROUNDUP
NATIONAL WEATHER SERVICE DETROIT/PONTIAC MI
500 PM EST SAT DEC 20 2014

NOTE: "FAIR" INDICATES FEW OR NO CLOUDS BELOW 12,000 FEET WITH NO
SIGNIFICANT WEATHER AND/OR OBSTRUCTION TO VISIBILITY.

MIZ047>049-052>055-059>063-066>070-074>076-081>083-202300-
SOUTHEAST LOWER MICHIGAN

CITY           SKY/WX    TMP DP  RH WIND       PRES   REMARKS
ADRIAN         CLOUDY    29  20  69 CALM      30.27R
ALMA           MOCLDY    29  24  81 CALM      30.27R
ANN ARBOR      CLOUDY    30  21  69 CALM      30.26R
BAD AXE        CLOUDY    29  22  75 CALM      30.27S
CARO           CLOUDY    31  23  72 CALM      30.27R
DETROIT CITY   CLOUDY    32  20  61 CALM      30.28R
DETROIT        CLOUDY    30  22  72 CALM      30.28R
FLINT          CLOUDY    31  20  63 W5        30.27R WCI  26
GROSSE ILE     CLOUDY    30  23  74 CALM      30.27R
HILLSDALE      CLOUDY    30  21  71 CALM      30.23S
HOWELL         CLOUDY    29  21  73 CALM      30.25S

CITY           SKY/WX    TMP DP  RH WIND       PRES   REMARKS
JACKSON        CLOUDY    29  22  75 CALM      30.24S
LAMBERTVILLE   CLOUDY    32  23  69 CALM      30.27S
LANSING        CLOUDY    30  20  66 CALM      30.27R
LAPEER         CLOUDY    29  20  68 CALM      30.27R
MASON          CLOUDY    28  22  75 CALM      30.26R
MONROE         CLOUDY    30  25  80 CALM      30.26S
MT. CLEMENS    CLOUDY    30  21  69 NW2       30.25S
PONTIAC        CLOUDY    28  19  69 CALM      30.25R
PORT HOPE        N/A     30  20  66 W3        30.26R
PORT HURON     CLOUDY    28  21  74 CALM      30.28S
TRI CITIES     MOCLDY    30  22  72 CALM      30.27S
TROY           CLOUDY    32  20  62 CALM      30.28S
SAGINAW HB     CLOUDY    32  25  74 CALM      30.27R
$$
MIZ043>046-050>051-056>058-064>065-071>073-077>080-202300-
SOUTHWEST LOWER MICHIGAN

CITY           SKY/WX    TMP DP  RH WIND       PRES   REMARKS
BATTLE CREEK   CLOUDY    32  23  69 W6        30.25R WCI  26
BENTON HARBOR  CLOUDY    32  26  78 SW6       30.26R WCI  26
BIG RAPIDS     CLOUDY    30  25  81 CALM      30.24R
COLDWATER      CLOUDY    31  23  74 MISG      30.25R
FREMONT        CLOUDY    28  27  94 CALM      30.25R FOG
HOLLAND        CLOUDY    31  26  82 SE6       30.26S HAZE    WCI  25
GRAND RAPIDS   CLOUDY    31  25  78 W5        30.26R HAZE    WCI  26
IONIA          CLOUDY    31  22  69 CALM      30.25R
KALAMAZOO      CLOUDY    31  25  78 SW3       30.26R
LUDINGTON      CLOUDY    31  26  83 E5        30.26S WCI  26
MARSHALL       CLOUDY    29  21  71 CALM      30.24S
MOUNT PLEASANT MOCLDY    28  23  80 CALM      30.26R
MUSKEGON       CLOUDY    30  24  78 SE7       30.26R WCI  23
SOUTH HAVEN    CLOUDY    32  28  88 CALM      30.26R FOG
$$
MIZ016>042-202300-
NORTHERN LOWER MICHIGAN

CITY           SKY/WX    TMP DP  RH WIND       PRES   REMARKS
ALPENA         CLOUDY    27  20  75 SW3       30.27R
BEAVER ISLAND  CLOUDY    28  25  86 SE5       30.25R WCI  23
BELLAIRE       CLOUDY    30  23  75 CALM      30.27R
CADILLAC       CLOUDY    27  21  79 CALM      30.22R
CHARLEVOIX     CLOUDY    28  23  82 SE5       30.29R WCI  23
FRANKFORT      CLOUDY    30  25  81 CALM      30.26R
GAYLORD        CLOUDY    25  18  74 CALM      30.22R
GRAYLING       CLOUDY    23  19  85 CALM      30.25R
HARBOR SPRINGS MOCLDY    27  20  75 CALM      30.26R
HOUGHTON LAKE  MOCLDY    24  18  77 CALM      30.24S
MANISTEE       CLOUDY    28  21  74 SE3       30.26S
OSCODA         CLOUDY    28  23  81 S5        30.26S WCI  22
PELLSTON       CLOUDY    26  19  74 SE3       30.27R
ROGERS CITY    CLOUDY    26  23  88 CALM      30.28R
TRAVERSE CITY  CLOUDY    31  22  69 CALM      30.25R
$$
MIZ007>008-015-202300-
EASTERN UPPER MICHIGAN

CITY           SKY/WX    TMP DP  RH WIND       PRES   REMARKS
KINROSS        CLOUDY    25  21  86 S3        30.25S
MACKINAC ISLAN CLOUDY    28  21  76 S6        30.26R WCI  21
NEWBERRY       CLOUDY    27  24  89 SE8       30.23R WCI  18
S. S. MARIE    CLOUDY    23  17  78 S3        30.26F
MUNISING         N/A     30  20  66 S5        30.22R WCI  25
$$
MIZ004>006-011>014-085-202300-
CENTRAL UPPER MICHIGAN

CITY           SKY/WX    TMP DP  RH WIND       PRES   REMARKS
MANISTIQUE     CLOUDY    30  24  78 MISG      30.23S
ESCANABA       CLOUDY    28  21  74 S3        30.23S
MENOMINEE      CLOUDY    28  23  80 E3        30.23S
SAWYER-GWINN   CLOUDY    25  23  93 S6        30.18R WCI  18
$$
MIZ001>003-009>011-084-202300-
WESTERN UPPER MICHIGAN

CITY           SKY/WX    TMP DP  RH WIND       PRES   REMARKS
IRON MOUNTAIN  CLOUDY    28  23  81 SE3       30.18S
HOUGHTON       CLOUDY    27  22  81 S5        30.14S WCI  22
COPPER HARBOR    N/A     29  23  78 SW5       30.17S WCI  24
IRONWOOD       CLOUDY    30  27  86 S6        30.11S WCI  24
$$

ABBREVIATIONS USED IN REMARKS
   TC - TEMPERATURE IN CELSIUS
  WCI - WIND CHILL INDEX
   HX - HEAT INDEX
  VSB - VISIBILITY




USA.gov is the U.S. government's official web portal to all federal, state and local government web resources and services.